User: anonymous   Login
Location: Hemaruka
(51.7801°N, 111.0917°W)
Time: 06:20:21
(UTC+00:00)
Language:

Cosmos 1975 Rocket - Orbit

View from above orbital plane
View from above orbital plane
View from above satellite
View from above satellite

Ground track
Ground track

The orbit data is extracted from the following two-line orbital elements,

1 19574U 88093B   24141.54027788  .00001444  00000-0  16820-3 0  9990
2 19574  82.5296 299.3013 0022411  56.7582   9.9646 14.84433243903350
Epoch (UTC): 20 May 2024 12:58:00
Eccentricity: 0.0022411
inclination: 82.5296°
perigee height: 599 km
apogee height: 631 km
right ascension of ascending node: 299.3013°
argument of perigee: 56.7582°
revolutions per day: 14.84433243
mean anomaly at epoch: 9.9646°
orbit number at epoch: 90335

The dashed part of the orbit path shows where the satellite is in the earth's shadow,  

DLR